User: anonymous   Login
Location: Cluj-Napoca
(46.7712°N, 23.6236°E)
Time: 19:31:41
(UTC+02:00)
Language:

NOAA 15 - Orbit

View from above orbital plane
View from above orbital plane
View from above satellite
View from above satellite

Ground track
Ground track

The orbit data is extracted from the following two-line orbital elements,

1 25338U 98030A   21337.10909040  .00000074  00000-0  49092-4 0  9999
2 25338  98.6665   3.9975 0011000 145.4117 214.7780 14.26073466225288
Epoch (UTC): 03 December 2021 02:37:05
Eccentricity: 0.0011000
inclination: 98.6665°
perigee height: 797 km
apogee height: 813 km
right ascension of ascending node: 3.9975°
argument of perigee: 145.4117°
revolutions per day: 14.26073466
mean anomaly at epoch: 214.7780°
orbit number at epoch: 22528

The dashed part of the orbit path shows where the satellite is in the earth's shadow,  

DLR